EW6767 Weather Reports


time (UTC)temp
C
wind
direction
speed
KPH
gust
KPH
rain 1hr
cm
rain 24hr
cm
rain mn
cm
humidity
%
barometer
mb
20260903010028 27 243 0.0 0.0 0.00 0.00 0.00 84 1030.6
20260903004528 27 243 0.0 0.0 0.00 0.00 0.00 83 1030.5
20260903003027 27 243 0.0 0.0 0.00 0.00 0.00 81 1030.4
20260903001545 28 243 0.0 0.0 0.00 0.00 0.00 80 1030.4
20260903000026 28 243 0.0 0.0 0.00 0.00 0.00 78 1030.3
20260902234526 29 243 0.0 0.0 0.00 0.00 0.00 76 1030.3
20260902233026 30 243 0.0 0.0 0.00 0.00 0.00 74 1030.3
20260902231528 31 243 0.0 0.0 0.00 0.00 0.00 71 1030.3
20260902230024 32 243 0.0 3.2 0.00 0.00 0.00 65 1030.3
20260902224524 32 243 0.0 6.4 0.00 0.00 0.00 62 1030.4
20260902223023 32 25 0.0 4.8 0.00 0.00 0.00 63 1030.4
20260902221521 32 219 1.6 6.4 0.00 0.00 0.00 60 1030.4
20260902220021 33 246 3.2 9.7 0.00 0.00 0.00 59 1030.6
20260902214520 33 60 1.6 6.4 0.00 0.00 0.00 59 1030.6
20260902213019 33 248 1.6 9.7 0.00 0.00 0.00 58 1030.6
20260902211517 33 233 1.6 6.4 0.00 0.00 0.00 57 1030.7
20260902210017 33 321 0.0 8.0 0.00 0.00 0.00 57 1030.8
20260902204516 34 278 0.0 11.3 0.00 0.00 0.00 57 1030.9
20260902203014 34 51 1.6 9.7 0.00 0.00 0.00 53 1031.0
20260902201514 35 256 3.2 11.3 0.00 0.00 0.00 55 1031.1
20260902200014 35 231 1.6 6.4 0.00 0.00 0.00 53 1031.2
20260902194512 35 188 1.6 9.7 0.00 0.00 0.00 53 1031.3
20260902193009 35 240 3.2 9.7 0.00 0.00 0.00 53 1031.6
20260902191506 35 241 1.6 9.7 0.00 0.00 0.00 52 1031.7
20260902190007 35 252 1.6 14.5 0.00 0.00 0.00 53 1031.9
20260902184503 35 134 1.6 16.1 0.00 0.00 0.00 52 1032.0
20260902183001 35 230 3.2 12.9 0.00 0.00 0.00 53 1032.1
20260902181501 35 58 1.6 9.7 0.00 0.00 0.00 54 1032.1
20260902180100 35 224 3.2 11.3 0.00 0.00 0.00 54 1032.2
20260902174558 35 236 4.8 11.3 0.00 0.00 0.00 54 1032.4
20260902173057 35 244 4.8 8.0 0.00 0.00 0.00 55 1032.7
20260902171615 34 219 3.2 12.9 0.00 0.00 0.00 55 1032.8
20260902170054 34 226 0.0 9.7 0.00 0.00 0.00 57 1032.8
20260902164553 33 240 4.8 9.7 0.00 0.00 0.00 58 1033.0
20260902163052 33 241 3.2 6.4 0.00 0.00 0.00 60 1033.0
20260902161550 33 262 1.6 6.4 0.00 0.00 0.00 61 1033.0
20260902160047 33 229 1.6 8.0 0.00 0.00 0.00 63 1033.0
20260902154544 32 228 1.6 8.0 0.00 0.00 0.00 62 1033.1
20260902153044 32 249 0.0 4.8 0.00 0.00 0.00 66 1033.1
20260902151539 32 224 1.6 6.4 0.00 0.00 0.00 66 1033.2
20260902150035 31 229 1.6 11.3 0.00 0.00 0.00 69 1033.4
20260902144535 31 226 0.0 4.8 0.00 0.00 0.00 70 1033.4
20260902143031 30 246 1.6 4.8 0.00 0.00 0.00 73 1033.3
20260902141533 28 228 0.0 4.8 0.00 0.00 0.00 77 1033.3
20260902140020 28 266 0.0 3.2 0.00 0.00 0.00 80 1033.4
20260902134522 27 60 0.0 3.2 0.00 0.00 0.00 82 1033.3
20260902133011 26 274 0.0 4.8 0.00 0.00 0.00 86 1033.5
20260902131507 25 60 0.0 8.0 0.00 0.00 0.00 87 1033.5
20260902130004 25 268 1.6 6.4 0.00 0.00 0.00 89 1033.6
20260902124600 24 274 0.0 6.4 0.00 0.00 0.00 90 1033.5
20260902123100 23 242 0.0 4.8 0.00 0.00 0.00 91 1033.5
20260902121554 22 172 0.0 0.0 0.00 0.00 0.00 91 1033.4
20260902120057 22 231 0.0 0.0 0.00 0.00 0.00 91 1033.3
20260902114552 22 231 0.0 0.0 0.00 0.00 0.00 91 1033.2
20260902113051 22 231 0.0 0.0 0.00 0.00 0.00 91 1032.9
20260902111551 22 231 0.0 0.0 0.00 0.00 0.00 91 1032.9
20260902110048 22 231 0.0 1.6 0.00 0.00 0.00 91 1032.7
20260902104548 22 231 0.0 1.6 0.00 0.00 0.00 91 1032.7
20260902103047 22 229 0.0 0.0 0.00 0.00 0.00 91 1032.7
20260902101546 22 229 0.0 0.0 0.00 0.00 0.00 91 1032.6
20260902100045 22 229 0.0 0.0 0.00 0.00 0.00 91 1032.7
20260902094546 22 229 0.0 0.0 0.00 0.00 0.00 91 1032.6
20260902093043 22 229 0.0 0.0 0.00 0.00 0.00 91 1032.6
20260902091546 22 229 0.0 0.0 0.00 0.00 0.00 91 1032.4
20260902090041 22 229 0.0 0.0 0.00 0.00 0.00 91 1032.4
20260902084541 22 229 0.0 0.0 0.00 0.00 0.00 91 1032.2
20260902083038 22 229 0.0 0.0 0.00 0.00 0.00 91 1032.2
20260902081535 22 229 0.0 0.0 0.00 0.00 0.00 91 1032.1
20260902080038 22 229 0.0 0.0 0.00 0.00 0.00 91 1032.1
20260902074544 22 229 0.0 0.0 0.00 0.00 0.00 91 1032.1
20260902073033 22 229 0.0 0.0 0.00 0.00 0.00 91 1032.0
20260902071532 22 229 0.0 0.0 0.00 0.00 0.00 92 1032.0
20260902070030 22 229 0.0 0.0 0.00 0.00 0.00 92 1032.0
20260902064530 22 229 0.0 0.0 0.00 0.00 0.00 92 1032.0
20260902063053 22 229 0.0 0.0 0.00 0.00 0.00 92 1031.9
20260902061529 22 229 0.0 0.0 0.00 0.00 0.00 92 1032.0
20260902060026 23 229 0.0 0.0 0.00 0.00 0.00 92 1032.0
20260902054526 23 229 0.0 0.0 0.00 0.00 0.00 92 1032.0
20260902053028 23 229 0.0 0.0 0.00 0.00 0.00 92 1031.9
20260902051536 23 229 0.0 0.0 0.00 0.00 0.00 92 1031.9
20260902050029 23 229 0.0 0.0 0.00 0.00 0.00 92 1031.8
20260902044523 23 229 0.0 0.0 0.00 0.00 0.00 92 1031.9
20260902043020 23 229 0.0 0.0 0.00 0.00 0.00 92 1031.9
20260902041533 23 229 0.0 0.0 0.00 0.00 0.00 91 1032.0
20260902040024 23 229 0.0 0.0 0.00 0.00 0.00 91 1032.0
20260902034516 23 229 0.0 0.0 0.00 0.00 0.00 91 1032.0
20260902033015 23 229 0.0 0.0 0.00 0.00 0.00 91 1032.0
20260902031514 24 229 0.0 0.0 0.00 0.00 0.00 90 1032.0
20260902030014 24 229 0.0 0.0 0.00 0.00 0.00 90 1032.0
20260902024513 24 229 0.0 0.0 0.00 0.00 0.00 90 1032.0
20260902023012 25 229 0.0 0.0 0.00 0.00 0.00 90 1031.9
20260902021512 25 229 0.0 0.0 0.00 0.00 0.00 89 1031.8
20260902020011 25 229 0.0 0.0 0.00 0.00 0.00 89 1031.7
20260902014519 25 229 0.0 0.0 0.00 0.00 0.00 88 1031.6
20260902013012 26 229 0.0 0.0 0.00 0.00 0.00 87 1031.6